GGSE 1 (GGRS)

Satellite information

Favourite Embed

Satellite Type and Status

PAYLOADIN ORBIT

Key statistics

Satellite GGSE 1 (GGRS) at a glance.

Uptime

22398

Days in orbit

Revolutions

≈ 14.0

Per day

Orbit

LEO

Low Earth Orbit

Inclination

69.9

Latest

Satellite identification and parameters

Extended collection of information and parameters for GGSE 1 (GGRS).

Object identification

Identified? True

Debris? False

Object name: GGSE 1 (GGRS)

International designator: 1964-001B

Object number (NORAD): 728

Object ID (CCSDS): 728

Country: UNITED STATES OF AMERICA (US)

Current information (Y/N): Y

RCS size: MEDIUM

Orbital parameters

Period: 103.029 minutes

Inclination: 69.9091 deg

SMA: 7280.021 km

Apoapsis: 910.982 km

Periapsis: 892.79 km

RAAN: 356.4616 deg

Eccentricy: 0.0012494

Argument of periapsis: 159.6013 deg

Mean anomaly: 200.5594 deg

Mean motion: 13.9766732 rev/day

Mean motion (dot): 0.00000104 rev/day2

B* drag term: 0.00011143 1/REarth

Two-line elements (TLE)

Creation date: May 8, 2025, 3:01 a.m.

Reference frame: TEME

Reference center: EARTH

Epoch: May 7, 2025, 8:14 p.m. UTC

TLE line 0: 0 GGSE 1 (GGRS)

TLE line 1: 1 00728U 64001B 25127.84343338 .00000104 00000-0 11143-3 0 9999

TLE line 2: 2 00728 69.9091 356.4616 0012494 159.6013 200.5594 13.97667320123037

Live tracking on map

Real-time ground track for satellite GGSE 1 (GGRS).

In-orbit conjunctions

A list of the most updated potential collisions computed for object GGSE 1 (GGRS).

Target Orbit TCA Probability of collision Miss distance Type
COSMOS 2251 DEB LEO 2025-02-21 07:17:02 0.0001532366 518.0 (m) DEBRIS
THORAD AGENA D DEB SSO 2024-11-05 22:11:13 0.0001886816 487.0 (m) DEBRIS
CZ-6A DEB SSO 2024-09-18 07:11:22 0.001307167 197.0 (m) DEBRIS
THORAD AGENA D DEB SSO 2024-07-20 04:30:47 0.0002128159 552.0 (m) DEBRIS
COSMOS 1275 DEB LEO 2024-07-01 22:00:29 0.001044401 399.0 (m) DEBRIS

Associated space launch

Poppy was the follow-on ELINT system, which succeeded the Grab ELINT satellite system.

GGSE 1 (GGRS) was lifted into orbit during the mission ‘Thor SLV-2A Agena D | Poppy 5A, 5B & 5C’, on board a Thor SLV-2A Agena D space rocket.

The launch took place on Jan. 11, 1964, 8:07 p.m. from Space Launch Complex 1E.

For more information about the launch, click the button.

Launch to space Thor SLV-2A Agena D | Poppy 5A, 5B & 5C
Thor SLV-2A Agena D | Poppy 5A, 5B & 5C

Agency: N/A

Status: Launch Successful

Launch date: Jan. 11, 1964, 8:07 p.m. UTC

Rocket: Thor SLV-2A Agena D

Launch pad: Space Launch Complex 1E

Location: Vandenberg SFB, CA, USA

...

Latest news about this satellite

There are no fresh news available about this satellite. Check back as we update our databases every day.


Newsletter sign-up

Weekly statistics, charts and insights to help you stay on top of the space industry.